[[{"header":{"parameterUnit":"m.s-1","parameterCategory":1,"la1":30.2991,"la2":30.254,"lo1":-89.0895,"lo2":-89.0444,"dy":0.0017,"dx":0.0017,"nx":28,"ny":28,"refTime":"2025-07-19T21:00:00:Z","depth":0,"parameterNumber":2,"parameterNumberName":"U-component_of_WINDS"},"data":[0,0,0,0,0,0,0,0,0,0,0,0,0,0,0,0,0,0,0,0,0,0,0,0,0,0,0,0,0,0,0,0,0,0,0,0,0,0,0,0,0,0,0,0,0,0,0,0,0,0,0,0,0,0,0,0,0,0,5.06,5.0601,0,5.0718,5.0719,5.072,5.0655,5.0652,5.0649,5.0646,5.0767,5.0773,5.078,0,0,0,0,0,0,0,0,0,0,0,0,0,5.0316,5.0322,5.0599,5.0601,5.0602,5.0717,5.0719,5.0721,5.0656,5.0652,5.0648,5.0644,5.0765,5.0773,5.078,0,0,0,0,0,0,0,0,0,0,0,0,0,5.0437,5.0324,5.0599,5.0584,5.0584,5.0717,5.0719,5.0721,5.0657,5.0652,5.0647,5.0642,5.0763,5.0772,5.0781,5.0936,0,0,5.081,5.0814,0,0,0,0,0,0,0,0,5.0431,5.0448,5.0585,5.0585,5.0585,5.0667,5.0664,5.0793,5.0658,5.0629,5.0646,5.064,5.0738,5.0749,5.0782,5.0942,5.0947,5.0811,5.0816,5.082,5.0823,0,0,0,0,0,0,0,5.0422,5.0442,5.0646,5.0587,5.0587,5.0571,5.0583,5.0688,5.0709,5.0631,5.0627,5.0642,5.0737,5.0773,5.0784,5.0949,5.081,5.0819,5.0825,5.0828,5.1238,5.1243,0,0,0,0,0,0,5.0415,5.0436,5.0642,5.065,5.0494,5.058,5.0593,5.0646,5.0708,5.0713,5.0646,5.0638,5.0759,5.0773,5.0788,5.097,5.082,5.0829,5.0835,5.1233,5.124,5.1245,0,0,0,0,0,0,5.0409,5.0434,5.0638,5.0542,5.0566,5.059,5.0649,5.065,5.0686,5.0719,5.0722,5.0678,5.0756,5.0775,5.0899,5.0974,5.0833,5.0842,5.1227,5.1235,5.1242,5.1339,0,0,0,0,0,0,5.0401,5.0432,5.0492,5.0543,5.0572,5.0747,5.0654,5.0656,5.0702,5.0694,5.0751,5.0755,5.0754,5.0885,5.0908,5.0984,5.0849,5.122,5.1231,5.124,5.1329,5.1349,5.1366,0,0,0,0,0,5.0391,5.0515,5.0495,5.0521,5.0647,5.0752,5.0768,5.0763,5.0709,5.0768,5.0789,5.0753,5.0963,5.0899,5.0924,5.1004,5.1216,5.1228,5.1239,5.132,5.1345,5.1365,0,0,0,0,0,0,5.0473,5.0522,5.05,5.0645,5.0694,5.0741,5.0815,5.079,5.0856,5.0845,5.0837,5.0851,5.0979,5.1004,5.0932,5.1155,5.1081,5.1098,5.1134,5.1157,5.1175,5.1165,5.0857,0,0,0,0,0,5.0507,5.0589,5.0627,5.0751,5.0777,5.0792,5.0838,5.083,5.0881,5.0902,5.0932,5.0983,5.1059,5.111,5.1183,5.1333,5.1342,5.14,5.1419,5.1434,5.1448,5.1525,5.155,5.1284,5.1284,5.1284,0,0,5.058,5.0617,5.0669,5.0768,5.0806,5.0889,5.081,5.0903,5.0964,5.0916,5.1033,5.1058,5.1114,5.125,5.1312,5.1275,5.1524,5.1449,5.1461,5.1467,5.154,5.1565,5.1588,5.1292,5.1291,5.129,0,0,5.0754,5.0792,5.0896,5.0935,5.0993,5.1002,5.1027,5.1077,5.1091,5.1209,5.1173,5.1246,5.138,5.142,5.1458,5.1645,5.1614,5.167,5.1765,5.1841,5.1862,5.188,5.1943,5.1966,5.1684,5.1685,5.1685,0,5.0836,5.096,5.0954,5.1048,5.1091,5.1052,5.1156,5.1195,5.1274,5.1304,5.1262,5.1426,5.1462,5.1605,5.1651,5.1684,5.1711,5.1661,5.1859,5.1878,5.1895,5.1955,5.1979,5.1691,5.169,5.1689,5.1689,0,5.1057,5.1144,5.1222,5.1297,5.135,5.1449,5.1457,5.1511,5.1498,5.1511,5.163,5.1671,5.175,5.1784,5.1774,5.1926,5.1901,5.186,5.1784,5.1926,5.1982,5.2005,5.1699,5.1697,5.1695,5.1694,0,0,5.1285,5.1354,5.1382,5.1414,5.1474,5.154,5.1638,5.1714,5.1758,5.1814,5.1893,5.2006,5.1967,5.2011,5.2004,5.2071,5.2212,5.2021,5.2022,5.2052,5.2377,5.2405,5.2432,5.2193,5.2197,5.2201,5.2371,0,5.1459,5.1627,5.1623,5.1779,5.1857,5.182,5.1904,5.1949,5.1964,5.2032,5.2048,5.2126,5.2072,5.2097,5.2162,5.2181,5.2276,5.2169,5.2263,5.2267,5.2246,5.2461,5.2492,5.2651,5.2393,5.2397,5.24,0,5.1685,5.1746,5.1909,5.1954,5.1987,5.2063,5.213,5.2197,5.2246,5.2252,5.2299,5.2282,5.2378,5.2302,5.2433,5.236,5.2399,5.2414,5.242,5.2426,5.2339,5.2469,5.2702,5.2724,5.2435,5.2432,5.243,0,5.1829,5.1953,5.2065,5.2095,5.2152,5.2205,5.2231,5.2276,5.2321,5.2381,5.2409,5.248,5.2518,5.2573,5.2574,5.2519,5.2705,5.263,5.271,5.271,5.2749,5.2746,5.2987,5.2781,5.278,5.278,5.2779,0,5.2022,5.2122,5.213,5.2199,5.231,5.2304,5.2414,5.2435,5.2475,5.2546,5.252,5.2587,5.2587,5.2655,5.2658,5.2763,5.2782,5.2788,5.2786,5.2788,5.2787,5.2811,5.2798,5.2786,5.2785,5.2783,5.2782,0,5.22,5.221,5.233,5.2373,5.2387,5.2466,5.2502,5.2567,5.2579,5.267,5.2691,5.271,5.2788,5.2796,5.2889,5.2889,5.3016,5.3005,5.2999,5.2996,5.3074,5.3065,5.3336,5.3369,5.3145,5.3147,5.3149,0,5.2321,5.2397,5.2448,5.2493,5.2522,5.2597,5.2642,5.2639,5.2687,5.2748,5.2805,5.2881,5.2942,5.3069,5.3091,5.316,5.3148,5.3238,5.3158,5.3156,5.3144,5.3138,5.3144,5.3252,5.3255,5.3257,5.3259,0,5.2533,5.2533,5.2599,5.2667,5.2721,5.2774,5.2824,5.2863,5.2866,5.2921,5.3001,5.3048,5.314,5.3215,5.3283,5.3309,5.3284,5.3284,5.3305,5.3306,5.3297,5.3299,5.3037,5.3277,5.3275,5.3274,5.3273,5.3272,5.2683,5.2747,5.2792,5.2866,5.2903,5.2949,5.3011,5.303,5.3097,5.3171,5.3166,5.3253,5.3299,5.3387,5.3418,5.3486,5.3455,5.3488,5.3495,5.3502,5.3508,5.329,5.3499,5.3498,5.3498,5.3497,5.3497,0,5.2889,5.2916,5.2984,5.3053,5.3111,5.3083,5.3136,5.3185,5.3262,5.3307,5.3366,5.3456,5.3528,5.3555,5.3625,5.3673,5.3663,5.3691,5.3685,5.3691,5.3533,5.3505,5.3698,5.3698,5.3698,5.3698,5.3698,5.3698,5.3003,5.3109,5.3115,5.3238,5.3264,5.3348,5.338,5.3422,5.3457,5.3559,5.3618,5.3635,5.3672,5.3744,5.3808,5.3814,5.3839,5.3871,5.3872,5.3723,5.3703,5.3683,5.3657,5.3878,5.3878,5.4023,5.4025,5.4026]},{"header":{"parameterUnit":"m.s-1","parameterCategory":1,"la1":30.2991,"la2":30.254,"lo1":-89.0895,"lo2":-89.0444,"dy":0.0017,"dx":0.0017,"nx":28,"ny":28,"refTime":"2025-07-19T21:00:00:Z","depth":0,"parameterNumber":3,"parameterNumberName":"V-component_of_WINDS"},"data":[0,0,0,0,0,0,0,0,0,0,0,0,0,0,0,0,0,0,0,0,0,0,0,0,0,0,0,0,0,0,0,0,0,0,0,0,0,0,0,0,0,0,0,0,0,0,0,0,0,0,0,0,0,0,0,0,0,0,2.9019,2.9019,0,2.9081,2.9082,2.9082,2.9063,2.9061,2.906,2.9059,2.912,2.9123,2.9126,0,0,0,0,0,0,0,0,0,0,0,0,0,2.8879,2.8881,2.9019,2.9019,2.902,2.9081,2.9082,2.9083,2.9063,2.9061,2.906,2.9058,2.9119,2.9122,2.9126,0,0,0,0,0,0,0,0,0,0,0,0,0,2.894,2.8882,2.9019,2.9018,2.9018,2.9081,2.9082,2.9083,2.9063,2.9061,2.9059,2.9057,2.9118,2.9122,2.9126,2.9192,0,0,2.9139,2.9141,0,0,0,0,0,0,0,0,2.8937,2.8945,2.9017,2.9018,2.9019,2.9062,2.9055,2.912,2.9064,2.9046,2.9059,2.9057,2.9102,2.9108,2.9124,2.9195,2.9198,2.914,2.9142,2.9144,2.9145,0,0,0,0,0,0,0,2.8932,2.8942,2.9043,2.9018,2.9019,2.9013,2.902,2.9067,2.9084,2.9048,2.9046,2.9054,2.9102,2.912,2.9125,2.9199,2.914,2.9144,2.9146,2.9148,2.9325,2.9327,0,0,0,0,0,0,2.8928,2.8939,2.9041,2.9045,2.8972,2.9017,2.9024,2.905,2.9084,2.9087,2.9056,2.9053,2.9113,2.912,2.9127,2.9205,2.9144,2.9148,2.9151,2.9323,2.9326,2.9328,0,0,0,0,0,0,2.8925,2.8937,2.9039,2.8992,2.9004,2.9022,2.9051,2.9052,2.907,2.909,2.9093,2.907,2.9112,2.9121,2.9176,2.9207,2.915,2.9154,2.9321,2.9324,2.9327,2.9363,0,0,0,0,0,0,2.8921,2.8936,2.8963,2.8993,2.9007,2.9088,2.9053,2.9055,2.9078,2.9074,2.9105,2.9108,2.9111,2.917,2.918,2.9212,2.9157,2.9318,2.9322,2.9326,2.9359,2.9367,2.9374,0,0,0,0,0,2.8916,2.897,2.8964,2.8977,2.904,2.909,2.9098,2.9102,2.908,2.9106,2.9119,2.9107,2.9202,2.9175,2.9187,2.9221,2.9316,2.9321,2.9326,2.9356,2.9366,2.9374,0,0,0,0,0,0,2.8944,2.8974,2.8968,2.9034,2.9059,2.9087,2.912,2.9112,2.9144,2.914,2.9142,2.9149,2.9205,2.9218,2.9188,2.9285,2.9256,2.9263,2.9275,2.9284,2.9291,2.9287,2.9161,0,0,0,0,0,2.8957,2.8996,2.9021,2.9076,2.9089,2.9102,2.9124,2.9124,2.9151,2.9161,2.9178,2.9203,2.9239,2.9262,2.9296,2.9361,2.9366,2.9389,2.9397,2.9403,2.9409,2.9442,2.9453,2.9344,2.9344,2.9344,0,0,2.8986,2.9008,2.9032,2.9082,2.9102,2.9141,2.9112,2.9154,2.9183,2.9168,2.9221,2.9234,2.9262,2.9321,2.9349,2.9334,2.944,2.9409,2.9414,2.9417,2.9448,2.9459,2.9468,2.9347,2.9347,2.9346,0,0,2.9058,2.9079,2.9127,2.9147,2.9178,2.9186,2.9197,2.9225,2.9234,2.9287,2.9276,2.9309,2.937,2.939,2.9408,2.9486,2.9475,2.9496,2.9535,2.9567,2.9576,2.9584,2.961,2.9619,2.9503,2.9503,2.9503,0,2.909,2.9149,2.9152,2.9195,2.9217,2.9205,2.9252,2.9272,2.9312,2.9326,2.931,2.9385,2.9404,2.9467,2.9486,2.9501,2.9513,2.9493,2.9575,2.9582,2.9589,2.9614,2.9624,2.9505,2.9505,2.9505,2.9504,0,2.9185,2.9226,2.9261,2.93,2.9325,2.9371,2.9379,2.9404,2.9401,2.9411,2.9464,2.9485,2.9522,2.9537,2.9535,2.96,2.959,2.9574,2.9544,2.9602,2.9625,2.9635,2.9508,2.9508,2.9507,2.9506,0,0,2.9277,2.9317,2.9329,2.9346,2.9378,2.9409,2.9453,2.9489,2.951,2.9537,2.9573,2.9624,2.9609,2.963,2.963,2.9659,2.9717,2.9639,2.964,2.9652,2.9787,2.9798,2.981,2.971,2.9712,2.9713,2.9784,0,2.9351,2.9429,2.9432,2.9502,2.9539,2.9528,2.9565,2.9588,2.9597,2.9629,2.9638,2.9674,2.9653,2.9665,2.9693,2.9704,2.9744,2.9699,2.9741,2.9743,2.9735,2.9822,2.9834,2.9901,2.9794,2.9795,2.9796,0,2.9448,2.9479,2.9553,2.9578,2.9593,2.9628,2.966,2.9691,2.9716,2.972,2.9743,2.9738,2.978,2.9749,2.9807,2.9776,2.9794,2.9802,2.9804,2.9808,2.9773,2.9827,2.9922,2.9932,2.9811,2.981,2.9809,0,2.9506,2.9566,2.9617,2.9632,2.9663,2.9687,2.9701,2.9724,2.9745,2.9773,2.9787,2.982,2.9837,2.9862,2.9865,2.9843,2.9923,2.9892,2.9927,2.9926,2.9944,2.9943,3.0042,2.9956,2.9956,2.9956,2.9956,0,2.9588,2.9634,2.9644,2.9676,2.9725,2.9728,2.9776,2.9788,2.9808,2.9841,2.9833,2.9863,2.9866,2.9897,2.99,2.9946,2.9954,2.9958,2.9958,2.9959,2.9958,2.997,2.9965,2.9959,2.9958,2.9958,2.9957,0,2.9662,2.9671,2.9726,2.975,2.9757,2.9793,2.9813,2.9843,2.985,2.9891,2.9901,2.9913,2.9949,2.9955,2.9997,2.9998,3.0054,3.0049,3.0045,3.0045,3.0078,3.0074,3.0188,3.0202,3.0108,3.0109,3.011,0,2.9713,2.9748,2.9776,2.9797,2.9812,2.9847,2.9869,2.9872,2.9894,2.9924,2.9949,2.9984,3.0012,3.0069,3.0081,3.0112,3.0108,3.0146,3.0113,3.0112,3.0108,3.0105,3.0108,3.0152,3.0153,3.0154,3.0155,0,2.9803,2.9805,2.9837,2.987,2.9896,2.9922,2.9947,2.9964,2.997,2.9995,3.0032,3.0054,3.0096,3.013,3.0161,3.0174,3.0165,3.0165,3.0174,3.0175,3.0171,3.0172,3.0062,3.0162,3.0161,3.0161,3.0161,3.016,2.9866,2.9896,2.992,2.9955,2.9974,2.9996,3.0025,3.0036,3.0067,3.0102,3.0102,3.0141,3.0163,3.0204,3.0218,3.0248,3.0236,3.025,3.0253,3.0257,3.0259,3.0166,3.0254,3.0254,3.0254,3.0253,3.0253,0,2.9955,2.9969,3.0002,3.0036,3.0063,3.0053,3.0079,3.0102,3.0137,3.0159,3.0187,3.0228,3.026,3.0274,3.0306,3.0327,3.0323,3.0335,3.0333,3.0336,3.0269,3.0257,3.0337,3.0337,3.0337,3.0337,3.0337,3.0337,3.0004,3.0053,3.0058,3.0115,3.0129,3.0168,3.0184,3.0204,3.0221,3.0268,3.0295,3.0304,3.0322,3.0354,3.0383,3.0386,3.0398,3.0411,3.0412,3.0349,3.0341,3.0333,3.0322,3.0414,3.0414,3.0476,3.0477,3.0477]}]]